Weather History for Jaffrey, NH

Change the Weather History Date:

Saturday, December 8, 2012

  Actual Average Record
Temperature  
Mean Temperature 38 °F -  
Max Temperature 41 °F 35 °F 44 °F (1999)
Min Temperature 35 °F 20 °F 3 °F (2008)
Degree Days  
Heating Degree Days 27    
Moisture  
Dew Point 35 °F    
Average Humidity 94    
Maximum Humidity 100    
Minimum Humidity 93    
Precipitation  
Precipitation 0.30 in - - ()
Sea Level Pressure  
Sea Level Pressure 29.93 in    
Wind  
Wind Speed 0 mph (SW)    
Max Wind Speed 5 mph    
Max Gust Speed -    
Visibility 2 miles    
Events Fog , Rain    
Averages and records for this station are not official NWS values.
T = Trace of Precipitation, MM = Missing Value Source: NWS Daily Summary

Daily Weather History Graph

Daily Weather History Graph

Search for Another Location

Airport:

Trip Planner

Search our weather history database for the weather conditions in past years. The results will help you decide how hot, cold, wet, or windy it might be!

Date:

Astronomy

Dec. 08, 2012 Rise Set
Actual Time 7:06 AM EST 4:13 PM EST
Civil Twilight 6:34 AM EST 4:45 PM EST
Nautical Twilight 5:58 AM EST 5:21 PM EST
Astronomical Twilight 5:24 AM EST 5:55 PM EST
Moon 1:21 AM EST (12/8) 12:47 PM EST (12/8)
Length of Visible Light 10h 11m
Length of Day
9h 07m
Waning Crescent, 28% of the Moon is Illuminated
Dec 8
Waning Crescent
Dec 13
New
Dec 20
First Quarter
Dec 28
Full
Jan 4
Last Quarter

Hourly Weather History & Observations

Time (EST) Temp. Windchill Dew Point Humidity Pressure Visibility Wind Dir Wind Speed Gust Speed Precip Events Conditions
12:02 AM 35.6 °F - 35.6 °F 100% 30.01 in 1.5 mi Calm Calm - N/A   Overcast
12:10 AM 35.6 °F - 35.6 °F 100% 30.01 in 1.2 mi Calm Calm - N/A   Overcast
12:17 AM 37.4 °F - 35.6 °F 93% 30.00 in 1.8 mi Calm Calm - N/A   Overcast
12:40 AM 37.4 °F - 35.6 °F 93% 30.00 in 2.5 mi Calm Calm - N/A   Overcast
12:52 AM 36.0 °F 33.3 °F 35.1 °F 97% 30.04 in 2.5 mi South 3.5 mph - N/A   Overcast
1:12 AM 35.6 °F - 35.6 °F 100% 29.99 in 1.5 mi Calm Calm - N/A   Overcast
1:20 AM 37.4 °F - 35.6 °F 93% 29.99 in 1.0 mi Calm Calm - N/A   Overcast
1:52 AM 37.0 °F - 35.1 °F 93% 30.04 in 1.0 mi Calm Calm - N/A   Mist
2:20 AM 35.6 °F - 33.8 °F 93% 29.99 in 0.5 mi Calm Calm - N/A Fog Fog
2:52 AM 36.0 °F - 35.1 °F 97% 30.02 in 0.2 mi Calm Calm - N/A Fog Fog
3:52 AM 36.0 °F - 35.1 °F 97% 30.02 in 0.2 mi Calm Calm - 0.00 in Fog , Rain Light Rain
4:40 AM 35.6 °F - 33.8 °F 93% 29.97 in 1.0 mi Calm Calm - 0.02 in Rain Light Rain
4:52 AM 36.0 °F - 34.0 °F 93% 30.01 in 1.0 mi Calm Calm - 0.03 in Rain Light Rain
5:07 AM 35.6 °F - 33.8 °F 93% 29.97 in 1.2 mi Calm Calm - 0.01 in Rain Light Rain
5:31 AM 35.6 °F - 33.8 °F 93% 29.97 in 1.5 mi Calm Calm - 0.03 in Rain Rain
5:41 AM 35.6 °F - 33.8 °F 93% 29.96 in 1.8 mi Calm Calm - 0.04 in Rain Light Rain
5:52 AM 36.0 °F - 34.0 °F 93% 30.01 in 2.5 mi Calm Calm - 0.05 in Rain Light Rain
6:03 AM 35.6 °F - 33.8 °F 93% 29.96 in 2.0 mi Calm Calm - 0.02 in Rain Rain
6:29 AM 35.6 °F - 33.8 °F 93% 29.96 in 3.0 mi Calm Calm - 0.04 in Rain Light Rain
6:52 AM 36.0 °F - 34.0 °F 93% 30.01 in 4.0 mi Calm Calm - 0.06 in Rain Light Rain
7:06 AM 35.6 °F - 33.8 °F 93% 29.95 in 3.0 mi Calm Calm - 0.00 in Rain Light Rain
7:14 AM 35.6 °F - 33.8 °F 93% 29.95 in 2.5 mi Calm Calm - 0.00 in Rain Light Rain
7:36 AM 35.6 °F - 33.8 °F 93% 29.94 in 1.5 mi Calm Calm - 0.01 in Rain Light Rain
7:42 AM 35.6 °F - 33.8 °F 93% 29.94 in 1.0 mi Calm Calm - 0.01 in Rain Light Rain
7:52 AM 36.0 °F - 34.0 °F 93% 29.98 in 1.2 mi Calm Calm - 0.02 in Rain Light Rain
8:06 AM 35.6 °F - 33.8 °F 93% 29.94 in 1.8 mi Calm Calm - 0.00 in Rain Light Rain
8:13 AM 35.6 °F - 33.8 °F 93% 29.94 in 2.0 mi Calm Calm - 0.00 in Rain Light Rain
8:20 AM 35.6 °F - 33.8 °F 93% 29.94 in 1.5 mi Calm Calm - 0.00 in Rain Light Rain
8:45 AM 35.6 °F - 33.8 °F 93% 29.93 in 2.0 mi Calm Calm - 0.01 in   Overcast
8:52 AM 36.0 °F - 34.0 °F 93% 29.99 in 2.0 mi Calm Calm - 0.01 in   Overcast
8:57 AM 35.6 °F 32.8 °F 33.8 °F 93% 29.94 in 1.2 mi Variable 3.5 mph - 0.02 in Rain Rain
9:12 AM 35.6 °F 32.8 °F 35.6 °F 100% 29.95 in 1.5 mi North 3.5 mph - 0.04 in Rain Light Rain
9:31 AM 35.6 °F - 35.6 °F 100% 29.94 in 2.5 mi Calm Calm - 0.07 in Rain Light Rain
9:52 AM 37.0 °F - 35.1 °F 93% 29.98 in 3.0 mi Calm Calm - 0.09 in Rain Light Rain
10:23 AM 37.4 °F - 35.6 °F 93% 29.93 in 1.8 mi Calm Calm - 0.01 in Rain Light Rain
10:43 AM 37.4 °F - 35.6 °F 93% 29.93 in 2.5 mi Calm Calm - 0.03 in Rain Light Rain
10:52 AM 37.0 °F - 35.1 °F 93% 29.96 in 2.5 mi Calm Calm - 0.03 in Rain Light Rain
11:08 AM 35.6 °F 32.8 °F 35.6 °F 100% 29.91 in 4.0 mi NNE 3.5 mph - 0.01 in   Overcast
11:52 AM 37.0 °F 34.5 °F 35.1 °F 93% 29.92 in 5.0 mi Variable 3.5 mph - 0.01 in   Overcast
12:15 PM 37.4 °F 33.8 °F 35.6 °F 93% 29.87 in 2.0 mi North 4.6 mph - N/A   Overcast
12:27 PM 37.4 °F - 35.6 °F 93% 29.87 in 1.5 mi Calm Calm - N/A   Overcast
12:52 PM 37.0 °F - 35.1 °F 93% 29.90 in 1.5 mi Calm Calm - N/A   Overcast
1:20 PM 37.4 °F 34.9 °F 35.6 °F 93% 29.84 in 1.2 mi North 3.5 mph - N/A   Overcast
1:31 PM 37.4 °F - 35.6 °F 93% 29.84 in 1.5 mi Calm Calm - N/A   Overcast
1:48 PM 37.4 °F - 35.6 °F 93% 29.84 in 2.0 mi Calm Calm - N/A   Overcast
1:52 PM 37.9 °F - 36.0 °F 93% 29.88 in 2.0 mi Calm Calm - N/A   Overcast
2:37 PM 37.4 °F - 35.6 °F 93% 29.85 in 1.5 mi Calm Calm - N/A   Overcast
2:52 PM 37.9 °F - 36.0 °F 93% 29.90 in 1.2 mi Calm Calm - N/A   Overcast
3:18 PM 37.4 °F - 35.6 °F 93% 29.85 in 1.5 mi Calm Calm - N/A   Overcast
3:52 PM 37.9 °F - 36.0 °F 93% 29.90 in 1.2 mi Calm Calm - N/A   Overcast
4:02 PM 37.4 °F - 35.6 °F 93% 29.85 in 1.0 mi Calm Calm - N/A   Overcast
4:11 PM 37.4 °F - 35.6 °F 93% 29.85 in 1.2 mi Calm Calm - N/A   Overcast
4:18 PM 37.4 °F - 35.6 °F 93% 29.86 in 1.8 mi Calm Calm - N/A   Overcast
4:25 PM 37.4 °F - 35.6 °F 93% 29.85 in 2.5 mi Calm Calm - N/A   Overcast
4:52 PM 37.9 °F - 36.0 °F 93% 29.90 in 1.8 mi Calm Calm - N/A   Overcast
5:06 PM 37.4 °F - 35.6 °F 93% 29.86 in 1.2 mi Calm Calm - N/A   Overcast
5:14 PM 37.4 °F - 35.6 °F 93% 29.86 in 1.5 mi Calm Calm - N/A   Overcast
5:25 PM 37.4 °F 34.9 °F 35.6 °F 93% 29.86 in 1.2 mi SSW 3.5 mph - N/A   Overcast
5:47 PM 37.4 °F - 35.6 °F 93% 29.86 in 1.0 mi Calm Calm - N/A   Overcast
5:52 PM 37.9 °F - 36.0 °F 93% 29.91 in 1.2 mi Calm Calm - N/A   Overcast
6:03 PM 37.4 °F - 37.4 °F 100% 29.87 in 1.0 mi Calm Calm - N/A   Overcast
6:11 PM 37.4 °F - 37.4 °F 100% 29.87 in 0.8 mi Calm Calm - N/A   Overcast
6:52 PM 37.9 °F - 36.0 °F 93% 29.91 in 0.5 mi Calm Calm - N/A Fog Fog
7:52 PM 39.0 °F - 37.9 °F 96% 29.93 in 0.2 mi Calm Calm - N/A Fog Fog
8:52 PM 39.9 °F 37.8 °F 39.9 °F 100% 29.93 in 0.5 mi SSW 3.5 mph - N/A Fog Fog
9:52 PM 39.9 °F 37.8 °F 39.0 °F 97% 29.94 in 0.8 mi SSW 3.5 mph - N/A   Mist
10:52 PM 41.0 °F - 39.9 °F 96% 29.96 in 0.8 mi Calm Calm - N/A   Mist
11:00 PM 41.0 °F - 39.2 °F 93% 29.92 in 1.0 mi Calm Calm - N/A   Mist
11:28 PM 41.0 °F - 39.2 °F 93% 29.93 in 1.2 mi Calm Calm - N/A   Overcast
11:41 PM 41.0 °F 39.0 °F 39.2 °F 93% 29.93 in 1.0 mi SSW 3.5 mph - N/A   Mist